Wilmington, DE

11:50 PM EDT on May 24, 2017 (GMT -0400)
New Castle County

Weather History for KILG - April, 2014

Change the Weather History Date:

Wednesday, April 2, 2014

  Actual Average Record
Temperature  
Mean Temperature 50 °F 49 °F  
Max Temperature 59 °F 59 °F 83 °F (1967)
Min Temperature 41 °F 39 °F 20 °F (1924)
Degree Days  
Heating Degree Days 15 16  
Month to date heating degree days 33 33  
Since 1 July heating degree days 4708 4339  
Cooling Degree Days 0 0  
Month to date cooling degree days 0 0  
Year to date cooling degree days 0 1  
Moisture  
Dew Point 41 °F    
Average Humidity 76    
Maximum Humidity 89    
Minimum Humidity 62    
Precipitation  
Precipitation T in 0.14 in 2.18 in (2005)
Month to date precipitation T 0.27  
Year to date precipitation 12.40 9.88  
Snow  
Snow 0.00 in 0.00 in 0.60 in (1965)
Month to date snowfall 0.0 0.0  
Since 1 July snowfall 56.1 19.9  
Snow Depth 0.00 in    
Sea Level Pressure  
Sea Level Pressure 30.09 in    
Wind  
Wind Speed 4 mph (SE)    
Max Wind Speed 15 mph    
Max Gust Speed 17 mph    
Visibility 10 miles    
Events Rain    
T = Trace of Precipitation, MM = Missing Value Source: NWS Daily Summary

Daily Weather History Graph

Daily Weather History Graph

Search for Another Location

Airport or City:

Trip Planner

Search our weather history database for the weather conditions in past years. The results will help you decide how hot, cold, wet, or windy it might be!

Date:

Astronomy

Apr. 02, 2014 Rise Set
Actual Time 6:45 AM EDT 7:27 PM EDT
Civil Twilight 6:17 AM EDT 7:54 PM EDT
Nautical Twilight 5:45 AM EDT 8:27 PM EDT
Astronomical Twilight 5:12 AM EDT 9:00 PM EDT
Moon 8:28 AM EDT (4/2) 10:47 PM EDT (4/2)
Length of Visible Light 13h 36m
Length of Day
12h 42m
Waxing Crescent, 10% of the Moon is Illuminated
Apr 2
Waxing Crescent
Apr 7
First Quarter
Apr 15
Full
Apr 22
Last Quarter
Apr 29
New

Hourly Weather History & Observations

Time (EDT) Temp. Windchill Dew Point Humidity Pressure Visibility Wind Dir Wind Speed Gust Speed Precip Events Conditions
12:51 AM 42.1 °F 37.7 °F 37.0 °F 82% 30.06 in 10.0 mi SE 6.9 mph - N/A   Clear
1:51 AM 41.0 °F 36.4 °F 36.0 °F 82% 30.05 in 10.0 mi ESE 6.9 mph - N/A   Clear
2:51 AM 41.0 °F 39.0 °F 37.0 °F 86% 30.05 in 10.0 mi ESE 3.5 mph - N/A   Clear
3:51 AM 42.1 °F - 37.0 °F 82% 30.06 in 10.0 mi Calm Calm - N/A   Clear
4:51 AM 42.1 °F 38.4 °F 37.9 °F 85% 30.04 in 10.0 mi ESE 5.8 mph - N/A   Clear
5:51 AM 42.1 °F 39.2 °F 39.0 °F 89% 30.05 in 10.0 mi SE 4.6 mph - N/A   Clear
6:51 AM 42.1 °F 39.2 °F 37.9 °F 85% 30.07 in 10.0 mi NE 4.6 mph - N/A   Clear
8:51 AM 45.0 °F 40.1 °F 39.9 °F 82% 30.11 in 10.0 mi North 9.2 mph - N/A   Overcast
9:51 AM 48.0 °F - 41.0 °F 77% 30.12 in 10.0 mi NNE 5.8 mph - N/A   Partly Cloudy
10:51 AM 48.0 °F - 39.9 °F 74% 30.14 in 10.0 mi Calm Calm - N/A   Overcast
11:51 AM 48.9 °F - 42.1 °F 77% 30.12 in 10.0 mi Calm Calm - 0.00 in Rain Light Rain
12:51 PM 52.0 °F - 42.1 °F 69% 30.13 in 10.0 mi Calm Calm - 0.00 in   Scattered Clouds
1:51 PM 50.0 °F - 42.8 °F 76% 30.12 in 10.0 mi SW 5.8 mph - N/A   Overcast
2:51 PM 57.0 °F - 44.1 °F 62% 30.09 in 10.0 mi Variable 4.6 mph - N/A   Partly Cloudy
3:51 PM 57.0 °F - 44.1 °F 62% 30.08 in 10.0 mi SSE 6.9 mph - N/A   Clear
4:51 PM 57.9 °F - 44.1 °F 60% 30.07 in 10.0 mi South 9.2 mph - N/A   Clear
5:51 PM 57.9 °F - 44.1 °F 60% 30.08 in 10.0 mi SSE 8.1 mph - N/A   Clear
6:51 PM 55.9 °F - 44.1 °F 64% 30.09 in 10.0 mi SE 5.8 mph - N/A   Partly Cloudy
7:51 PM 55.0 °F - 44.1 °F 67% 30.08 in 10.0 mi SE 3.5 mph - N/A   Scattered Clouds
8:51 PM 53.1 °F - 44.1 °F 71% 30.09 in 10.0 mi SE 3.5 mph - N/A   Clear
9:51 PM 50.0 °F - 43.0 °F 77% 30.10 in 10.0 mi SSW 5.8 mph - N/A   Clear
10:51 PM 48.9 °F - 42.1 °F 77% 30.10 in 10.0 mi Calm Calm - N/A   Clear
11:51 PM 46.9 °F - 43.0 °F 86% 30.09 in 10.0 mi NW 3.5 mph - N/A   Scattered Clouds